STARLINK-32376, 61707

Orbit data source: Space-Track

STARLINK-32376, 61707 is a payload satellite owned by SpaceX/Seattle (US) in LEO that was launched on Wed, 30 Oct 2024 UTC via an FALCON 9 launch vehicle from the Air Force Eastern Test Range (AFETR). Payload-class satellites include a variety of spacecraft equipped with specific instruments for various scientific and technological missions. These include communications satellites like Starlink; space stations such as the ISS; scientific satellites like the Hubble; Earth observation satellites from companies like Planet Labs, Umbra, and HawkEye 360; GPS; miniature CubeSats for education and research; and military/defense satellites.

Loading next visibility...
Identifier
61707, 2024-196A
Orbit
LEO
Last TLE update
12 hours ago
Origin
Manufacturer
SpaceX/Seattle
Mission
Operational Commercial Communications
Bus & Motor
STARLINK V2M, Unknown motor
Mass
730 kg wet, ~700 kg dry
Launch date (UTC)
2024-10-30 (8 months ago)
Launch vehicle
FALCON 9
Launch site
Air Force Eastern Test Range (AFETR)
Object type
Payload
Rocket body
Debris
Shape & HBR
Box + 2 Pan, 29 m
Radar Cross Section
36.964 m², Large (>1 m²)

Expand to show TLE details & history

TLE from 12 hours ago
0 STARLINK-32376
1 61707U 24196A   25186.22780364 -.00000319  00000-0  13584-5 0  9997
2 61707  53.1583 170.4537 0001119  78.3817 281.7309 15.30190526 39296
Epoch: 2025-07-05T05:28Z
TLE epoch observation values (Epoch: 2025-07-05T05:28:02.234Z)
Latitude
-0.00005°
Longitude
164.97549°
Altitude
475.987 km
Speed
7.629 km/s
True Right ascension
11h 21m 48s
True Declination
0° 00' 00"
Sunlit
Object was in daylight at epoch
Visualization orbit readout
Latitude
18.96901°
Longitude
-32.11927°
Altitude
475.451 km
Speed
7.631 km/s
Apparent Right ascension
20h 03m 34s
Apparent Declination
-11° 45' 30"
Sunlit
Object is in full shadow
Visualization observer readout
Local Sidereal Time
05:02:28
Azimuth
292.335° WNW
Elevation
-41.237°
Doppler factor
1
Orbital elements
Apogee altitude
476.267 km
Perigee altitude
474.733 km
Semi-major axis
6,853.637 km
Eccentricity
0.00011
Inclination
53.1583°
RAAN
170.4537°
Arg. of periapsis
78.3817°
True anomaly
Unknown
Mean anomaly
281.7309°
Eccentric anomaly
Unknown
Mean motion
3.82526 °/min
Orbital period
94.11 mins
BSTAR
0.0000013584
Loading maneuver chart data...
Loading SW <> Apogee altitude chart data...
Loading historical data...
Loading historical data...
Loading historical data...
Loading historical data...
Loading historical data...
Loading historical data...
Loading historical data...

STARLINK-32376 Visibility forecast

Observer location: undefined°, undefined°

Span
Click to sort rows by Start time (UTC) header in descending order
Start Az.
Max El. time (UTC)
Max El. Az.
Max El.
End time (UTC)
End Az.
4 mins2025-07-06 00:26:09.341Z159.207° S2025-07-06 00:28:09.341Z122.144° SE15.514°2025-07-06 00:30:09.341Z88.624° E
5 mins2025-07-06 02:03:09.341Z249.049° W2025-07-06 02:05:09.341Z299.204° NW39.359°2025-07-06 02:08:09.341Z39.688° NE
4 mins2025-07-06 07:00:09.341Z342.154° N2025-07-06 07:02:09.341Z21.627° NNE19.665°2025-07-06 07:04:09.341Z63.585° ENE
5 mins2025-07-06 08:38:09.341Z302.25° NW2025-07-06 08:40:09.341Z262.02° W41.785°2025-07-06 08:43:09.341Z141.73° SSE
|